User: anonymous   Login
Location: Marcé
(47.5801°N, 0.3280°W)
Time: 20:09:23
(UTC+01:00)
Language:

Altair - Orbit

View from above orbital plane
View from above orbital plane
View from above satellite
View from above satellite

Ground track
Ground track

The orbit data is extracted from the following two-line orbital elements,

1 00050U 60009B   21334.20838553 -.00000059  00000-0  25994-3 0  9994
2 00050  47.2313 273.9826 0113065 107.3027 254.0168 12.20117720735026
Epoch (UTC): 30 November 2021 05:00:04
Eccentricity: 0.0113065
inclination: 47.2313°
perigee height: 1502 km
apogee height: 1682 km
right ascension of ascending node: 273.9826°
argument of perigee: 107.3027°
revolutions per day: 12.20117720
mean anomaly at epoch: 254.0168°
orbit number at epoch: 73502

The dashed part of the orbit path shows where the satellite is in the earth's shadow,  

DLR